User: anonymous   Login
Location: Unspecified
(0.0000°N, 0.0000°E)
Time: 08:26:50
(UTC+02:00)
Language:

Cosmos 2251 - Orbit

View from above orbital plane
View from above orbital plane
View from above satellite
View from above satellite

Ground track
Ground track

The orbit data is extracted from the following two-line orbital elements,

1 22675U 93036A   17264.66065498 -.00000010  00000-0  56400-5 0  9999
2 22675  74.0401  40.0333 0024297 137.2941 223.0104 14.32505663267848
Epoch (UTC): 21 September 2017 15:51:20
Eccentricity: 0.0024297
inclination: 74.0401°
perigee height: 766 km
apogee height: 801 km
right ascension of ascending node: 40.0333°
argument of perigee: 137.2941°
revolutions per day: 14.32505663
mean anomaly at epoch: 223.0104°
orbit number at epoch: 26784

The dashed part of the orbit path shows where the satellite is in the earth's shadow,  

DLR